TimeEST,TemperatureF,Dew PointF,Humidity,Sea Level PressureIn,VisibilityMPH,Wind Direction,Wind SpeedMPH,Gust SpeedMPH,PrecipitationIn,Events,Conditions,WindDirDegrees,DateUTC
12:54 AM,28.0,24.1,85,29.98,10.0,Calm,Calm,-,N/A,,Clear,0,2014-01-13 05:54:00
1:54 AM,30.9,24.1,76,29.97,10.0,Variable,3.5,-,N/A,,Clear,0,2014-01-13 06:54:00
2:54 AM,30.9,24.1,76,29.97,10.0,SE,4.6,-,N/A,,Clear,130,2014-01-13 07:54:00
3:54 AM,30.9,23.0,72,29.96,10.0,Calm,Calm,-,N/A,,Clear,0,2014-01-13 08:54:00
4:54 AM,30.9,23.0,72,29.94,10.0,SE,6.9,-,N/A,,Scattered Clouds,140,2014-01-13 09:54:00
5:54 AM,30.9,23.0,72,29.92,10.0,SE,5.8,-,N/A,,Clear,140,2014-01-13 10:54:00
6:54 AM,32.0,24.1,73,29.90,10.0,SE,5.8,-,N/A,,Clear,130,2014-01-13 11:54:00
7:54 AM,33.1,25.0,72,29.89,10.0,SE,5.8,-,N/A,,Clear,130,2014-01-13 12:54:00
8:54 AM,35.1,26.1,70,29.89,10.0,SE,5.8,-,N/A,,Clear,140,2014-01-13 13:54:00
9:54 AM,39.0,27.0,62,29.88,10.0,SSE,4.6,-,N/A,,Clear,150,2014-01-13 14:54:00
10:54 AM,41.0,28.0,60,29.86,10.0,SE,5.8,-,N/A,,Clear,140,2014-01-13 15:54:00
11:54 AM,46.0,27.0,47,29.83,10.0,South,10.4,-,N/A,,Clear,170,2014-01-13 16:54:00
12:54 PM,46.9,27.0,46,29.80,10.0,South,9.2,-,N/A,,Clear,180,2014-01-13 17:54:00
1:54 PM,48.0,27.0,44,29.77,10.0,South,9.2,-,N/A,,Clear,180,2014-01-13 18:54:00
2:54 PM,50.0,27.0,41,29.75,10.0,SSE,8.1,16.1,N/A,,Clear,160,2014-01-13 19:54:00
3:54 PM,48.0,27.0,44,29.75,10.0,Calm,Calm,-,N/A,,Mostly Cloudy,0,2014-01-13 20:54:00
4:54 PM,48.0,26.1,42,29.75,10.0,Variable,4.6,-,N/A,,Overcast,0,2014-01-13 21:54:00
5:54 PM,46.9,27.0,46,29.75,10.0,SE,3.5,-,N/A,,Overcast,140,2014-01-13 22:54:00
6:54 PM,48.0,28.0,46,29.73,10.0,SSE,3.5,-,0.00,Rain,Light Rain,150,2014-01-13 23:54:00
7:54 PM,48.0,28.0,46,29.72,10.0,South,8.1,-,0.00,,Overcast,170,2014-01-14 00:54:00
8:54 PM,48.9,28.9,46,29.72,10.0,South,9.2,-,0.00,,Overcast,190,2014-01-14 01:54:00
9:54 PM,46.0,32.0,58,29.72,10.0,South,6.9,-,0.00,Rain,Light Rain,180,2014-01-14 02:54:00
10:54 PM,45.0,34.0,65,29.71,8.0,South,8.1,-,0.01,Rain,Light Rain,180,2014-01-14 03:54:00
11:54 PM,41.0,37.0,86,29.70,8.0,SSE,4.6,-,0.05,Rain,Light Rain,160,2014-01-14 04:54:00